Back to catalog

COSMOS 2464

GLONASS

AliveNavigationMEO
NORAD 37139·PAYLOAD·🇷🇺 Russia

Launched Sep 2, 2010 from Baikonur Cosmodrome

Loading…

Next Passes (next 24 hours)

TLE

FreshSource: Space-Track

Epoch: Sep 14, 2026, 14:35 UTC

1 37139U 10041C   26257.60767177  .00000019  00000-0  00000-0 0  9992
2 37139  63.9174 187.2067 0034861  12.2201 132.3249  2.13098410124791

Track COSMOS 2464 in real time with AllMySat

Download on the App Store